Location: Ch�tillon
(48.8024°N, 2.2935°E)
Time: 08:29:35
(UTC+00:00)

LO-87 - Pass Details

Date: 30 June 2022
Orbit: 451 x 466 km, 97.4° (Epoch: 09 August)

Event Time Altitude Azimuth Distance (km) Brightness Sun altitude
Exits shadow 22:23:51 16° 102° (ESE) 1,304 ? -15.3°
Maximum altitude 22:25:28 21° 66° (ENE) 1,095 ? -15.4°
Drops below altitude 10° 22:28:08 10° 16° (NNE) 1,626 ? -15.5°
Sets 22:30:31 0° 360° (N) 2,511 ? -15.7°
